Погода в Лимоне

Коста-Рика     9°59′11″N   83°04′10″W
темп.,
°C
ветер,
м/с
пор.,
м/с
влажн.,
%
обл.,
%
осадки,
мм/ч
давл.,
гПа
погр.,
м
9 августа, вт
вт900:00+25з338421 1.6 1011141
03:00+25з238657 0.3 1010118
06:00+25з228498 0.3 1011130
09:00+27сз2276100 0.0 1012389
12:00+28с337388 0.2 1011583
15:00+29св337047 0.2 1009722
18:00+27с228280 2.1 1011132
21:00+26зсз2284100 3.6 101373
10 августа, ср
ср1000:00+25зсз3484100 4.8 1012165
03:00+25зсз4585100 1.4 1011209
06:00+25зсз4587100 2.3 1012198
09:00+26сз448297 0.9 1013374
12:00+28с447893 1.0 1011523
15:00+28с337710 1.1 1010491
18:00+26ссз2383100 3.0 1011215
21:00+26зсз3385100 2.3 1013167
11 августа, чт
чт1100:00+25зсз4588100 2.6 1012217
03:00+25зсз4688100 1.8 1010231
06:00+24зсз579299 4.8 1012273
09:00+25зсз6789100 2.8 1013451
12:00+27сз6781100 3.2 1011585
15:00+26ссз5786100 8.6 1010463
18:00+25зсз4687100 15.9 1012303
21:00+25зсз3487100 5.3 1014190
12 августа, пт
пт1200:00+24юз2391100 9.6 1012172
03:00+24з3490100 3.0 1012205
06:00+24зсз4686100 3.1 1012238
09:00+25сз568399 0.1 1013272
12:00+27сз7975100 0.3 1012668
15:00+26сз8118098 0.7 1011676
18:00+24зсз71088100 0.9 1012479
21:00+24зсз5783100 0.4 1014324
13 августа, сб
сб1300:00+24зсз4483100 0.6 1013262
03:00+24зсз4583100 0.1 1012285
06:00+24зсз4585100 0.3 1012256
09:00+26сз3476100 0.0 1014416
12:00+27с437780 0.0 1012594
15:00+27с4381100 0.2 1011567
18:00+26ссз2285100 1.1 1012344
21:00+25з2288100 1.3 1013122